| time (UTC) | temp C | wind direction | speed KPH | gust KPH | rain 1hr cm | rain 24hr cm | rain mn cm | humidity % | barometer mb |
| 20260901011702 | 20 | 185 | 0.0 | 0.0 | 0.00 | 0.10 | 0.10 | 96 | 1022.2 |
| 20260901004702 | 20 | 185 | 0.0 | 0.0 | 0.00 | 0.10 | 0.10 | 96 | 1021.9 |
| 20260901001659 | 20 | 185 | 0.0 | 0.0 | 0.00 | 0.10 | 0.10 | 96 | 1021.9 |
| 20260831234656 | 20 | 185 | 0.0 | 0.0 | 0.00 | 0.10 | 0.10 | 93 | 1021.9 |
| 20260831231653 | 21 | 185 | 0.0 | 0.0 | 0.00 | 0.10 | 0.10 | 91 | 1021.9 |
| 20260831224651 | 21 | 96 | 0.0 | 0.0 | 0.00 | 0.10 | 0.10 | 90 | 1021.9 |
| 20260831221647 | 21 | 116 | 3.2 | 3.2 | 0.00 | 0.10 | 0.10 | 87 | 1022.2 |
| 20260831214644 | 22 | 258 | 8.0 | 8.0 | 0.10 | 0.10 | 0.10 | 80 | 1022.9 |
| 20260831211641 | 26 | 210 | 3.2 | 3.2 | 0.00 | 0.00 | 0.00 | 76 | 1022.2 |
| 20260831204638 | 26 | 254 | 3.2 | 3.2 | 0.00 | 0.00 | 0.00 | 71 | 1022.5 |
| 20260831201636 | 26 | 260 | 6.4 | 6.4 | 0.00 | 0.00 | 0.00 | 75 | 1022.9 |
| 20260831194636 | 25 | 229 | 3.2 | 3.2 | 0.00 | 0.00 | 0.00 | 77 | 1022.9 |
| 20260831191631 | 26 | 216 | 3.2 | 3.2 | 0.00 | 0.00 | 0.00 | 74 | 1023.3 |
| 20260831184629 | 26 | 236 | 3.2 | 3.2 | 0.00 | 0.00 | 0.00 | 74 | 1023.3 |
| 20260831181625 | 26 | 234 | 3.2 | 3.2 | 0.00 | 0.00 | 0.00 | 73 | 1023.7 |
| 20260831174625 | 25 | 235 | 4.8 | 4.8 | 0.00 | 0.00 | 0.00 | 75 | 1023.7 |
| 20260831171621 | 25 | 138 | 3.2 | 3.2 | 0.00 | 0.00 | 0.00 | 77 | 1023.7 |
| 20260831164616 | 25 | 246 | 4.8 | 4.8 | 0.00 | 0.00 | 0.00 | 79 | 1024.0 |
| 20260831161613 | 25 | 240 | 3.2 | 3.2 | 0.00 | 0.00 | 0.00 | 76 | 1024.0 |
| 20260831154614 | 25 | 272 | 0.0 | 0.0 | 0.00 | 0.00 | 0.00 | 75 | 1024.0 |
| 20260831151611 | 24 | 260 | 3.2 | 3.2 | 0.00 | 0.00 | 0.00 | 77 | 1024.3 |
| 20260831144607 | 24 | 269 | 4.8 | 4.8 | 0.00 | 0.00 | 0.00 | 79 | 1024.3 |
| 20260831141605 | 25 | 278 | 0.0 | 0.0 | 0.00 | 0.00 | 0.00 | 71 | 1024.3 |
| 20260831134602 | 22 | 287 | 3.2 | 3.2 | 0.00 | 0.00 | 0.00 | 85 | 1024.7 |
| 20260831131557 | 22 | 266 | 3.2 | 3.2 | 0.00 | 0.00 | 0.00 | 85 | 1024.7 |
| 20260831124553 | 21 | 266 | 0.0 | 0.0 | 0.00 | 0.00 | 0.00 | 89 | 1024.3 |
| 20260831121549 | 20 | 220 | 0.0 | 0.0 | 0.00 | 0.00 | 0.00 | 91 | 1024.3 |
| 20260831114547 | 20 | 220 | 0.0 | 0.0 | 0.00 | 0.00 | 0.00 | 94 | 1024.0 |
| 20260831111546 | 19 | 138 | 0.0 | 0.0 | 0.00 | 0.00 | 0.00 | 95 | 1024.3 |
| 20260831104545 | 19 | 138 | 0.0 | 0.0 | 0.00 | 0.00 | 0.00 | 95 | 1024.0 |
| 20260831101545 | 19 | 138 | 0.0 | 0.0 | 0.00 | 0.00 | 0.00 | 96 | 1024.0 |
| 20260831094540 | 19 | 138 | 0.0 | 0.0 | 0.00 | 0.00 | 0.00 | 96 | 1023.7 |
| 20260831091536 | 19 | 138 | 0.0 | 0.0 | 0.00 | 0.00 | 0.00 | 95 | 1022.9 |
| 20260831084532 | 19 | 138 | 0.0 | 0.0 | 0.00 | 0.00 | 0.00 | 95 | 1022.9 |
| 20260831081532 | 19 | 138 | 0.0 | 0.0 | 0.00 | 0.00 | 0.00 | 96 | 1022.9 |
| 20260831074531 | 20 | 138 | 0.0 | 0.0 | 0.00 | 0.00 | 0.00 | 95 | 1022.9 |
| 20260831071527 | 20 | 138 | 0.0 | 0.0 | 0.00 | 0.00 | 0.00 | 94 | 1022.9 |
| 20260831064527 | 20 | 138 | 0.0 | 0.0 | 0.00 | 0.00 | 0.00 | 93 | 1023.3 |
| 20260831061523 | 21 | 138 | 3.2 | 3.2 | 0.00 | 0.00 | 0.00 | 88 | 1022.9 |
| 20260831054522 | 21 | 42 | 0.0 | 0.0 | 0.00 | 0.00 | 0.00 | 88 | 1023.3 |
| 20260831051518 | 21 | 42 | 0.0 | 0.0 | 0.00 | 0.00 | 0.00 | 89 | 1023.7 |
| 20260831044518 | 22 | 42 | 0.0 | 0.0 | 0.00 | 0.00 | 0.00 | 87 | 1023.7 |
| 20260831041515 | 22 | 264 | 0.0 | 0.0 | 0.00 | 0.00 | 0.00 | 92 | 1023.7 |
| 20260831034515 | 22 | 127 | 1.6 | 1.6 | 0.00 | 0.00 | 0.00 | 94 | 1023.3 |
| 20260831031513 | 22 | 217 | 0.0 | 0.0 | 0.00 | 0.00 | 0.00 | 93 | 1024.0 |
| 20260831024512 | 22 | 266 | 0.0 | 0.0 | 0.00 | 0.00 | 0.00 | 92 | 1024.0 |
| 20260831021509 | 23 | 299 | 0.0 | 0.0 | 0.00 | 0.00 | 0.00 | 90 | 1024.0 |
| 20260831014510 | 23 | 299 | 0.0 | 0.0 | 0.00 | 0.00 | 0.00 | 88 | 1024.0 |